Hauptseite
METAR-TAF:

METAR-TAF

Flughäfen :

Militärflugplatz Meiringen

Meiringen, Schweiz

Breite: 46-44-25N, Länge: 8-06-36E, Höhe: 577 m

Beobachtung

Neuester Wetterbericht von vor 24 Minuten, um 20:20 UTC
Wind 4 kt aus Ost/Südost
Temperatur -4°C
Luftfeuchtigkeit 86%
Luftdruck 1018 hPa
Sichtweite 10 km oder mehr
Geschlossene Wolkendecke in der Höhe von 12000 ft

METAR: LSMM 152020Z AUTO 11004KT 9999NDV OVC120 M04/M06 Q1018 RMK

Zeit: 21:44 (20:44 UTC)


TAF: fehlend

Wetterbeobachtungen und Prognosen von mehr als 4000 Flughäfen (METAR und TAF Bericht).

Die verfügbaren Stationen werden durch gelbe und rote Markierungen auf der Karte dargestellt.

Führen Sie die Maus auf sie, um den Namen der Station zu sehen.

Darauf klicken, um die Beobachtung von Wetterbeobachtungen und Prognosen zu sehen.

Um die Karte zu ändern : klicken Sie auf den grünen Tasten mit einem schwarzen Kreuz Zum Vergrößern, auf den grünen Button mit einem Gedankenstrich zu verkleinern, oder auf die grünen Pfeile für benachbarte Karten.


METAR-TAF: